Tracking 29892 objects as of 21-Nov-2024
HD Live streaming from Space Station
objects crossing your sky now

STARLINK-30997

Track STARLINK-30997 now!
10-day predictions
STARLINK-30997 is classified as:


NORAD ID: 58482
Int'l Code: 2023-186K
Perigee: 565.6 km
Apogee: 566.6 km
Inclination: 43.0 °
Period: 95.8 minutes
Semi major axis: 6937 km
RCS: Unknown
Launch date: December 3, 2023
Source: United States (US)
Launch site: AIR FORCE EASTERN TEST RANGE (AFETR)
Your satellite tracking list
Your tracking list is empty




NASA's NSSDC Master Catalog

Two Line Element Set (TLE):
1 58482U 23186K   24325.49852760  .00004195  00000-0  32515-3 0  9992
2 58482  43.0031 123.8018 0000729 202.3177 157.7633 15.02566871 54522
Source of the keplerian elements: AFSPC